Location: Unspecified
(0.0000°N, 0.0000°E)
Time: 00:24:56
(UTC+00:00)

Hubble Space Telescope - Pass Details

Date: 20 January 2020
Orbit: 536 x 540 km, 28.5° (Epoch: 13 August)

Event Time Altitude Azimuth Distance (km) Brightness Sun altitude
Rises 05:33:11 0° 216° (SW) 2,671 4.2 -8.8°
Reaches altitude 10° 05:35:59 10° 197° (SSW) 1,780 3.5 -8.2°
Maximum altitude 05:38:54 19° 152° (SSE) 1,322 3.5 -7.5°
Drops below altitude 10° 05:41:50 10° 106° (ESE) 1,779 5.2 -6.8°
Sets 05:44:37 0° 87° (E) 2,668 5.8 -6.1°
